[[{"header":{"parameterUnit":"m.s-1","parameterCategory":1,"la1":30.2991,"la2":30.254,"lo1":-89.0895,"lo2":-89.0444,"dy":0.0017,"dx":0.0017,"nx":28,"ny":28,"refTime":"2025-01-31T09:00:00:Z","depth":0,"parameterNumber":2,"parameterNumberName":"U-component_of_WINDS"},"data":[0,0,0,0,0,0,0,0,0,0,0,0,0,0,0,0,0,0,0,0,0,0,0,0,0,0,0,0,0,0,0,0,0,0,0,0,0,0,0,0,0,0,0,0,0,0,0,0,0,0,0,0,0,0,0,0,0,0,-0.4677,-0.4677,0,-0.4678,-0.4678,-0.4678,-0.4685,-0.4685,-0.4685,-0.4686,-0.4686,-0.4686,-0.4685,0,0,0,0,0,0,0,0,0,0,0,0,0,-0.4682,-0.4682,-0.4677,-0.4677,-0.4677,-0.4678,-0.4678,-0.4678,-0.4685,-0.4685,-0.4686,-0.4686,-0.4686,-0.4686,-0.4685,0,0,0,0,0,0,0,0,0,0,0,0,0,-0.4681,-0.4682,-0.4677,-0.4681,-0.4681,-0.4678,-0.4678,-0.4678,-0.4685,-0.4685,-0.4686,-0.4686,-0.4686,-0.4686,-0.4685,-0.4679,0,0,-0.4685,-0.4685,0,0,0,0,0,0,0,0,-0.4681,-0.4681,-0.4681,-0.4681,-0.4681,-0.4682,-0.468,-0.4678,-0.4685,-0.4684,-0.4686,-0.4686,-0.4684,-0.4684,-0.4684,-0.4679,-0.4679,-0.4685,-0.4685,-0.4684,-0.4684,0,0,0,0,0,0,0,-0.4681,-0.4681,-0.4678,-0.468,-0.4681,-0.4682,-0.4683,-0.4679,-0.4682,-0.4684,-0.4684,-0.4684,-0.4684,-0.4684,-0.4684,-0.4679,-0.4685,-0.4684,-0.4684,-0.4684,-0.4668,-0.4668,0,0,0,0,0,0,-0.4681,-0.4681,-0.4678,-0.4678,-0.4682,-0.4682,-0.4682,-0.4681,-0.4682,-0.4683,-0.4684,-0.4685,-0.4684,-0.4684,-0.4684,-0.4676,-0.4684,-0.4684,-0.4684,-0.4668,-0.4668,-0.4668,0,0,0,0,0,0,-0.4681,-0.468,-0.4678,-0.4679,-0.4679,-0.4682,-0.4681,-0.4681,-0.4681,-0.4683,-0.4683,-0.4683,-0.4684,-0.4684,-0.468,-0.4676,-0.4684,-0.4684,-0.4669,-0.4668,-0.4668,-0.466,0,0,0,0,0,0,-0.4681,-0.468,-0.4678,-0.4679,-0.4679,-0.4674,-0.468,-0.4681,-0.468,-0.4681,-0.4682,-0.4682,-0.4685,-0.468,-0.468,-0.4676,-0.4684,-0.4669,-0.4669,-0.4668,-0.466,-0.4659,-0.4658,0,0,0,0,0,-0.4681,-0.4675,-0.4678,-0.4677,-0.4676,-0.4674,-0.4673,-0.4676,-0.468,-0.4677,-0.4679,-0.4682,-0.4677,-0.468,-0.4679,-0.4675,-0.4669,-0.4669,-0.4668,-0.4661,-0.4659,-0.4658,0,0,0,0,0,0,-0.4673,-0.4676,-0.4678,-0.4673,-0.4673,-0.4675,-0.4672,-0.4675,-0.4674,-0.4674,-0.4678,-0.4678,-0.4673,-0.4674,-0.4677,-0.4669,-0.4674,-0.4673,-0.4668,-0.4667,-0.4666,-0.4665,-0.4683,0,0,0,0,0,-0.4671,-0.4669,-0.4671,-0.4666,-0.4666,-0.4669,-0.4668,-0.467,-0.467,-0.467,-0.4672,-0.4671,-0.467,-0.4668,-0.4667,-0.4661,-0.4661,-0.4658,-0.4656,-0.4655,-0.4654,-0.4651,-0.465,-0.4666,-0.4666,-0.4666,0,0,-0.4666,-0.4667,-0.4665,-0.4665,-0.4665,-0.4663,-0.4669,-0.4666,-0.4664,-0.467,-0.4666,-0.4667,-0.4667,-0.4662,-0.466,-0.4662,-0.465,-0.4655,-0.4654,-0.4653,-0.465,-0.4649,-0.4647,-0.4665,-0.4665,-0.4665,0,0,-0.4656,-0.4656,-0.4652,-0.4653,-0.4653,-0.4655,-0.4654,-0.4656,-0.4657,-0.4653,-0.4657,-0.4655,-0.4652,-0.4652,-0.4651,-0.4641,-0.4644,-0.4641,-0.4634,-0.4631,-0.463,-0.4629,-0.4625,-0.4623,-0.464,-0.464,-0.464,0,-0.4649,-0.4646,-0.465,-0.4647,-0.4646,-0.4652,-0.4648,-0.4648,-0.4648,-0.4647,-0.465,-0.4646,-0.4647,-0.4642,-0.4639,-0.4639,-0.4638,-0.464,-0.463,-0.4628,-0.4627,-0.4624,-0.4622,-0.4639,-0.4639,-0.464,-0.464,0,-0.4638,-0.4636,-0.4633,-0.4633,-0.4632,-0.4628,-0.4632,-0.463,-0.4633,-0.4634,-0.463,-0.4631,-0.463,-0.4629,-0.4631,-0.4624,-0.4625,-0.4629,-0.4634,-0.4625,-0.4622,-0.4621,-0.4639,-0.4639,-0.4639,-0.4639,0,0,-0.4623,-0.4625,-0.4624,-0.4624,-0.4625,-0.4623,-0.462,-0.4619,-0.4618,-0.4618,-0.4615,-0.4612,-0.4615,-0.4615,-0.4617,-0.4614,-0.4606,-0.4618,-0.4618,-0.4616,-0.4598,-0.4595,-0.4593,-0.4608,-0.4608,-0.4608,-0.4598,0,-0.4613,-0.4607,-0.4611,-0.4605,-0.4603,-0.4608,-0.4605,-0.4605,-0.4607,-0.4605,-0.4607,-0.4605,-0.4609,-0.4609,-0.4606,-0.4608,-0.4603,-0.4609,-0.4605,-0.4605,-0.4605,-0.4592,-0.4588,-0.4579,-0.4596,-0.4596,-0.4596,0,-0.46,-0.46,-0.4593,-0.4595,-0.4594,-0.4592,-0.4591,-0.4589,-0.459,-0.4591,-0.4591,-0.4594,-0.4591,-0.4596,-0.4591,-0.4595,-0.4594,-0.4595,-0.4595,-0.4594,-0.46,-0.459,-0.4576,-0.4574,-0.4594,-0.4594,-0.4594,0,-0.4589,-0.4587,-0.4583,-0.4583,-0.4585,-0.4583,-0.4583,-0.4584,-0.4583,-0.4583,-0.4582,-0.4581,-0.458,-0.4579,-0.4582,-0.4586,-0.4577,-0.4583,-0.4578,-0.4578,-0.4575,-0.4575,-0.456,-0.4575,-0.4575,-0.4576,-0.4576,0,-0.4577,-0.4573,-0.4578,-0.4575,-0.4571,-0.4575,-0.457,-0.4572,-0.4572,-0.457,-0.4575,-0.4572,-0.4576,-0.4574,-0.4577,-0.4572,-0.4572,-0.4573,-0.4573,-0.4572,-0.4572,-0.4571,-0.4572,-0.4575,-0.4575,-0.4575,-0.4575,0,-0.4564,-0.4567,-0.4563,-0.4565,-0.4565,-0.4562,-0.4564,-0.4562,-0.4564,-0.456,-0.456,-0.4563,-0.4561,-0.4564,-0.4562,-0.4563,-0.4557,-0.4559,-0.4557,-0.4558,-0.4552,-0.4553,-0.4535,-0.4533,-0.4551,-0.455,-0.455,0,-0.4555,-0.4553,-0.4555,-0.4553,-0.4554,-0.4552,-0.4551,-0.4555,-0.4554,-0.4555,-0.4552,-0.4551,-0.455,-0.4546,-0.4548,-0.4547,-0.4548,-0.4542,-0.4548,-0.4547,-0.4547,-0.4547,-0.4547,-0.4541,-0.4541,-0.454,-0.454,0,-0.4541,-0.4543,-0.4541,-0.4541,-0.454,-0.4539,-0.4539,-0.4538,-0.4542,-0.4541,-0.4539,-0.4538,-0.4537,-0.4535,-0.4534,-0.4535,-0.4538,-0.4539,-0.4537,-0.4536,-0.4535,-0.4535,-0.4554,-0.4539,-0.4539,-0.4539,-0.4539,-0.4539,-0.453,-0.4527,-0.4528,-0.4527,-0.4527,-0.4527,-0.4525,-0.4527,-0.4525,-0.4524,-0.4527,-0.4524,-0.4525,-0.4524,-0.4524,-0.4522,-0.4525,-0.4523,-0.4523,-0.4522,-0.4521,-0.4535,-0.4522,-0.4522,-0.4522,-0.4522,-0.4522,0,-0.4515,-0.4516,-0.4515,-0.4514,-0.4513,-0.4517,-0.4517,-0.4516,-0.4514,-0.4514,-0.4513,-0.4511,-0.4509,-0.4511,-0.451,-0.4508,-0.4509,-0.4507,-0.4507,-0.4507,-0.4519,-0.452,-0.4506,-0.4506,-0.4506,-0.4506,-0.4506,-0.4506,-0.4507,-0.4503,-0.4505,-0.4501,-0.4502,-0.45,-0.45,-0.45,-0.45,-0.4497,-0.4496,-0.4497,-0.4498,-0.4497,-0.4496,-0.4496,-0.4495,-0.4493,-0.4494,-0.4505,-0.4506,-0.4508,-0.4509,-0.4493,-0.4493,-0.4482,-0.4482,-0.4482]},{"header":{"parameterUnit":"m.s-1","parameterCategory":1,"la1":30.2991,"la2":30.254,"lo1":-89.0895,"lo2":-89.0444,"dy":0.0017,"dx":0.0017,"nx":28,"ny":28,"refTime":"2025-01-31T09:00:00:Z","depth":0,"parameterNumber":3,"parameterNumberName":"V-component_of_WINDS"},"data":[0,0,0,0,0,0,0,0,0,0,0,0,0,0,0,0,0,0,0,0,0,0,0,0,0,0,0,0,0,0,0,0,0,0,0,0,0,0,0,0,0,0,0,0,0,0,0,0,0,0,0,0,0,0,0,0,0,0,0.6086,0.6085,0,0.6019,0.6019,0.6018,0.5967,0.5967,0.5966,0.5966,0.5898,0.5897,0.5895,0,0,0,0,0,0,0,0,0,0,0,0,0,0.617,0.6169,0.6086,0.6085,0.6084,0.602,0.6019,0.6018,0.5967,0.5967,0.5966,0.5966,0.5899,0.5897,0.5895,0,0,0,0,0,0,0,0,0,0,0,0,0,0.6122,0.6168,0.6086,0.6051,0.6048,0.602,0.6019,0.6017,0.5967,0.5967,0.5966,0.5965,0.5899,0.5897,0.5895,0.5897,0,0,0.5889,0.5888,0,0,0,0,0,0,0,0,0.6124,0.6118,0.6057,0.6054,0.6049,0.6001,0.6023,0.5977,0.5968,0.5998,0.5966,0.5965,0.5933,0.5928,0.5917,0.5893,0.5891,0.5889,0.5887,0.5887,0.5886,0,0,0,0,0,0,0,0.6128,0.6121,0.606,0.6056,0.6052,0.6039,0.6032,0.6014,0.597,0.5995,0.5991,0.5984,0.5931,0.5919,0.5915,0.589,0.5889,0.5887,0.5886,0.5885,0.5864,0.5865,0,0,0,0,0,0,0.6136,0.6124,0.6062,0.6058,0.6086,0.6038,0.603,0.6017,0.597,0.5962,0.5985,0.5982,0.5923,0.5918,0.5913,0.5912,0.5887,0.5885,0.5884,0.5864,0.5864,0.5865,0,0,0,0,0,0,0.6138,0.6131,0.6064,0.609,0.608,0.6038,0.6024,0.6016,0.6005,0.5962,0.5954,0.5981,0.5922,0.5915,0.5901,0.5909,0.5884,0.5882,0.5863,0.5864,0.5865,0.591,0,0,0,0,0,0,0.6141,0.6132,0.6132,0.609,0.6079,0.6054,0.6024,0.6015,0.6001,0.5997,0.5957,0.595,0.5921,0.5904,0.5899,0.5905,0.588,0.5862,0.5863,0.5865,0.5907,0.5912,0.5916,0,0,0,0,0,0.6144,0.6148,0.6133,0.6125,0.6078,0.6054,0.6048,0.6015,0.6002,0.6002,0.5975,0.5951,0.5909,0.5903,0.5897,0.5903,0.5861,0.5863,0.5864,0.5905,0.5911,0.5916,0,0,0,0,0,0,0.6192,0.6141,0.6124,0.6114,0.6089,0.6046,0.6045,0.6022,0.6001,0.5998,0.5958,0.5949,0.5939,0.5919,0.5914,0.5902,0.5882,0.5882,0.5915,0.592,0.5925,0.593,0.5879,0,0,0,0,0,0.6201,0.6186,0.6142,0.6138,0.6126,0.6088,0.6076,0.6053,0.6025,0.6015,0.5986,0.5961,0.5942,0.593,0.591,0.5904,0.5895,0.5905,0.5909,0.5913,0.5914,0.591,0.5914,0.587,0.587,0.587,0,0,0.622,0.619,0.6183,0.6146,0.6124,0.611,0.6079,0.6065,0.6053,0.6012,0.5997,0.5976,0.5944,0.5935,0.5929,0.5918,0.5924,0.5915,0.5919,0.5917,0.5912,0.5916,0.592,0.5871,0.5871,0.5871,0,0,0.6247,0.6223,0.6216,0.6195,0.6162,0.6136,0.6135,0.6095,0.608,0.6064,0.6033,0.6019,0.5987,0.5966,0.5951,0.5971,0.5948,0.5966,0.5989,0.5985,0.5989,0.5992,0.5999,0.6002,0.5967,0.5967,0.5967,0,0.6275,0.6251,0.6216,0.6204,0.6189,0.6151,0.6144,0.6125,0.6087,0.6078,0.6066,0.6025,0.6001,0.5986,0.5991,0.598,0.5978,0.597,0.5991,0.5994,0.5996,0.6002,0.6005,0.5969,0.5969,0.5969,0.5968,0,0.6287,0.6271,0.627,0.6235,0.6219,0.621,0.6174,0.6163,0.6141,0.6117,0.6102,0.6072,0.6046,0.604,0.6019,0.6022,0.6016,0.5998,0.5978,0.6003,0.6008,0.6011,0.5972,0.5972,0.5971,0.597,0,0,0.6342,0.6287,0.6287,0.6271,0.6232,0.6219,0.6208,0.6183,0.6174,0.6149,0.6139,0.6114,0.6097,0.608,0.6056,0.6053,0.6071,0.6035,0.6034,0.6043,0.6073,0.6087,0.6091,0.6056,0.6056,0.6057,0.6076,0,0.6363,0.6341,0.6309,0.6298,0.6283,0.6248,0.6238,0.6213,0.6191,0.6175,0.615,0.6133,0.6111,0.6101,0.6097,0.607,0.6077,0.6068,0.6047,0.6046,0.6056,0.6094,0.6108,0.6128,0.6078,0.6078,0.6079,0,0.6384,0.6362,0.6349,0.6312,0.6304,0.6296,0.627,0.6256,0.6227,0.6211,0.6193,0.6167,0.6154,0.6136,0.6117,0.6112,0.6102,0.6087,0.6087,0.6084,0.6064,0.6092,0.6134,0.6137,0.6082,0.6081,0.6081,0,0.6426,0.6392,0.638,0.6368,0.6324,0.6319,0.63,0.6271,0.6258,0.6235,0.6226,0.6203,0.619,0.6172,0.6141,0.613,0.6126,0.6105,0.6113,0.6114,0.6113,0.6114,0.6154,0.6107,0.6107,0.6107,0.6107,0,0.6453,0.6446,0.6399,0.6391,0.6383,0.6347,0.6341,0.6319,0.6293,0.6281,0.6249,0.6239,0.6198,0.6183,0.6159,0.6147,0.6142,0.6129,0.6122,0.6131,0.6133,0.6124,0.6122,0.6107,0.6107,0.6107,0.6107,0,0.6498,0.6465,0.645,0.641,0.64,0.6396,0.6361,0.6353,0.6329,0.6314,0.6309,0.6271,0.6252,0.6219,0.619,0.6173,0.6167,0.6156,0.6177,0.6173,0.6183,0.6182,0.6219,0.6222,0.6172,0.6173,0.6173,0,0.6517,0.6511,0.647,0.646,0.6443,0.6427,0.6413,0.6378,0.6365,0.6332,0.6328,0.6306,0.6287,0.6258,0.6228,0.6206,0.6194,0.6208,0.6191,0.62,0.6195,0.6195,0.6195,0.6213,0.6213,0.6214,0.6214,0,0.6555,0.6539,0.652,0.6497,0.6481,0.6461,0.6438,0.6432,0.6392,0.6379,0.6359,0.6344,0.6315,0.6294,0.6267,0.6248,0.6225,0.622,0.6221,0.623,0.6243,0.6236,0.6188,0.622,0.6219,0.6219,0.6218,0.6218,0.6587,0.6581,0.6551,0.6532,0.6511,0.6492,0.6482,0.6457,0.6439,0.6413,0.6393,0.6375,0.6347,0.6309,0.6292,0.6277,0.6266,0.6267,0.6267,0.6268,0.6272,0.6245,0.6272,0.6272,0.6271,0.6271,0.6271,0,0.6623,0.6603,0.6585,0.6555,0.654,0.6519,0.6494,0.6483,0.6467,0.6443,0.6425,0.6402,0.6381,0.635,0.6327,0.6321,0.631,0.6317,0.6317,0.6313,0.6282,0.6284,0.6326,0.6326,0.6326,0.6326,0.6326,0.6326,0.664,0.6628,0.661,0.6588,0.6567,0.6548,0.6536,0.6518,0.6498,0.6474,0.6457,0.6437,0.641,0.6385,0.6365,0.6357,0.635,0.636,0.6348,0.632,0.6315,0.631,0.6312,0.6359,0.6359,0.6379,0.638,0.638]}]]